Wetbulb
71.61 72.18 72.46 72.53 72.85 73.82 73.92 73.90 73.87 73.47 72.97 73.88 73.91 73.49 73.17 73.25 73.38 73.47 73.85 75.00 75.31 75.13 75.00 75.14 74.80 74.70 74.53 74.40 74.38 73.90 73.96 73.66 73.75 73.74 73.38 73.32 73.52 74.15 74.19 73.77 74.11 73.55 73.63
72.05 72.38 72.49 73.02 73.07 73.92 74.51 74.46 73.76 73.26 73.08 73.34 73.28 73.50 73.09 72.58 72.11 71.91 71.94 72.72 74.51 74.29 74.36 74.37 74.05 73.36 73.62 73.44 73.08 73.18 72.96 72.92 72.86 72.49 72.25 72.38 72.12 72.30 73.02 73.44 73.10 73.23 73.70
72.67 72.56 72.55 73.31 73.22 73.62 74.48 74.21 74.06 73.51 73.17 73.50 73.12 73.02 72.85 71.93 70.97 70.62 70.68 70.29 70.14 72.89 72.35 72.31 71.86 71.79 71.76 71.55 71.91 72.20 71.60 70.90 70.89 70.96 71.13 71.60 71.98 72.50 73.21 72.86 72.89 72.14 73.25
73.45 73.49 72.85 72.69 73.65 73.76 73.51 73.36 73.56 72.90 72.89 72.63 72.19 72.35 71.41 70.19 70.07 69.81 69.49 69.02 68.40 68.28 70.09 71.11 70.49 70.19 69.75 70.64 70.49 70.35 69.83 68.89 69.23 70.03 71.08 71.92 72.58 73.05 73.42 73.90 73.97 73.95 72.92
73.96 73.52 73.19 73.41 73.35 72.79 73.04 73.08 72.56 72.75 72.10 72.04 72.17 72.38 72.12 70.13 69.08 68.44 67.39 66.72 66.34 65.72 66.28 69.73 70.49 69.59 69.66 68.84 68.89 68.78 68.67 68.22 68.56 68.35 69.58 72.16 72.88 72.93 73.23 73.90 74.25 74.15 74.14
74.07 72.97 73.02 73.54 73.32 71.98 72.24 72.51 71.97 72.10 72.25 72.49 71.43 70.06 69.94 70.07 68.55 67.18 66.42 66.07 65.15 64.72 64.97 65.36 65.89 67.10 68.76 68.83 68.62 68.24 68.27 67.81 67.62 67.89 70.23 71.88 72.31 72.31 72.83 73.40 73.63 74.25 74.70
73.77 72.88 72.36 72.96 72.99 72.04 71.88 72.14 71.49 71.31 70.73 70.85 68.63 67.06 66.78 66.88 65.68 65.67 65.61 64.49 64.09 64.05 64.10 64.47 64.69 64.93 65.49 68.32 68.16 68.35 68.11 67.60 68.52 67.75 69.36 71.07 71.57 71.67 71.81 72.30 72.67 73.50 73.97
73.21 73.18 72.64 72.81 72.76 72.06 71.71 71.86 71.38 70.73 71.08 70.94 68.14 67.20 64.50 64.82 64.27 64.81 64.46 63.67 63.01 63.52 63.42 63.17 63.27 63.31 64.24 65.34 67.76 67.75 67.54 67.71 68.24 68.05 67.55 69.19 71.05 71.20 71.02 71.02 71.66 72.33 73.30
73.13 73.55 72.96 73.25 72.62 72.27 71.58 71.61 71.19 70.56 69.49 71.32 69.93 69.32 65.29 63.02 62.47 63.31 62.11 62.50 62.40 61.91 62.12 62.48 62.51 62.94 63.22 63.80 65.73 66.68 67.06 67.04 67.76 67.78 67.87 67.28 68.64 70.22 70.39 70.37 70.81 71.86 72.82
72.61 73.26 73.37 73.57 73.12 72.29 71.40 71.47 71.36 70.90 70.84 69.91 71.53 71.86 70.11 67.07 63.73 59.36 61.09 61.15 61.99 61.08 61.33 61.57 61.70 62.03 62.26 62.55 65.58 66.30 66.80 67.15 67.29 67.46 67.68 67.92 67.76 68.00 69.37 69.92 69.94 70.98 72.23
71.97 72.94 73.14 72.80 72.80 72.58 71.71 72.34 70.47 71.32 70.45 70.79 70.64 70.53 69.24 68.31 66.67 62.09 57.28 58.92 59.87 60.73 61.25 61.14 61.04 61.37 61.73 62.31 62.89 64.90 65.74 66.34 66.61 66.87 66.82 67.06 67.79 68.11 67.71 68.39 69.00 69.27 70.04
71.47 71.81 72.19 72.28 73.12 72.98 72.34 71.56 72.80 71.87 70.94 70.86 71.40 71.63 70.06 68.05 66.73 63.86 58.27 57.70 57.08 59.37 61.07 61.07 60.83 61.23 61.70 62.49 63.77 64.06 64.15 64.79 65.23 65.51 65.29 65.54 66.10 66.90 67.35 67.84 67.70 68.03 68.55
70.53 71.31 71.68 71.37 71.38 72.78 72.67 72.40 72.19 72.21 71.63 71.26 71.77 71.99 71.91 69.90 69.08 65.06 60.39 58.11 57.35 59.27 59.96 60.90 61.21 61.18 62.23 62.15 63.20 63.42 63.33 63.23 63.44 63.87 63.80 62.97 63.27 64.08 65.18 65.63 66.27 66.68 67.03
70.83 71.67 71.94 72.17 72.21 72.43 72.54 72.02 71.60 72.20 72.54 72.05 71.14 71.60 72.42 71.80 69.18 66.09 62.06 59.00 56.91 57.65 58.86 59.01 60.75 61.09 61.71 62.01 62.73 63.08 62.27 62.49 62.40 62.93 63.41 62.92 61.85 62.32 62.51 62.86 63.63 64.32 64.81
71.57 71.81 71.84 72.12 72.32 72.57 72.57 72.10 71.46 71.62 72.75 72.23 71.94 71.45 71.99 71.95 70.56 66.43 64.32 62.30 59.16 56.14 56.99 58.22 58.84 60.78 61.60 62.12 62.55 61.09 61.55 62.35 61.81 61.67 62.73 62.54 62.25 61.41 61.81 61.86 62.00 62.47 63.20
72.10 72.06 71.54 71.64 71.75 72.09 72.35 72.13 71.70 71.97 71.74 71.76 71.86 71.73 72.31 71.33 70.53 67.12 64.80 64.07 62.39 59.93 57.22 58.75 58.90 60.26 61.50 61.57 63.15 60.41 60.62 61.86 61.74 61.82 61.99 62.57 61.95 60.92 60.82 60.78 60.78 61.18 61.25
71.87 71.41 71.50 71.53 71.43 71.43 71.78 71.67 71.71 71.45 70.97 70.90 71.26 71.98 72.05 71.43 70.42 66.94 64.77 64.48 63.77 62.03 59.79 59.18 60.37 60.12 60.55 61.33 62.15 59.76 60.53 60.80 61.57 62.45 61.77 62.22 61.80 61.51 60.31 59.78 59.87 59.93 60.28
71.96 71.93 71.48 71.22 71.40 71.50 71.75 71.42 71.26 71.71 70.71 70.01 70.61 72.20 72.03 71.55 70.50 68.20 65.65 63.89 63.79 64.87 61.47 58.77 58.85 58.86 60.17 61.16 61.62 59.76 58.97 60.72 60.29 62.03 62.18 61.75 61.25 60.89 60.64 60.01 59.48 59.10 59.46
72.82 72.41 71.95 71.31 71.06 71.12 71.42 71.51 71.50 71.16 70.93 70.65 70.69 72.08 71.57 70.46 69.92 68.63 67.20 65.33 65.04 64.56 62.71 60.34 58.30 59.24 59.58 60.11 59.63 59.20 58.26 60.58 59.82 59.93 62.72 61.72 61.11 60.59 59.80 58.79 57.63 56.27 55.96
73.03 72.50 72.25 72.18 72.02 71.86 71.68 71.64 71.37 70.97 70.73 70.96 71.71 71.24 70.21 69.85 70.13 68.40 68.03 67.13 65.88 64.30 62.79 61.00 59.47 58.91 59.30 59.37 60.03 58.43 56.89 58.28 59.09 59.63 61.01 61.19 61.05 61.24 60.65 58.69 57.88 56.92 55.10
72.94 71.17 71.84 71.78 72.16 72.19 71.95 72.04 72.00 71.64 71.41 71.28 71.89 72.47 71.59 70.62 69.81 68.96 67.79 67.47 66.73 65.10 61.74 60.58 59.05 59.08 58.51 58.10 57.88 59.07 58.74 58.45 58.88 59.17 58.98 60.22 60.26 59.92 60.05 60.55 58.62 59.09 57.24
71.15 72.66 71.47 71.85 71.89 72.00 69.89 70.12 72.05 71.96 72.04 71.77 71.34 71.88 71.22 70.39 69.94 68.32 67.02 67.69 67.99 64.94 62.86 61.29 59.99 59.75 59.85 60.00 59.28 58.97 59.03 58.34 57.84 60.49 58.91 58.81 59.82 59.00 58.94 59.57 60.19 59.37 59.31
71.15 71.64 72.18 72.42 71.78 70.96 68.41 68.53 70.23 72.22 72.09 71.68 71.77 71.37 70.04 70.32 68.95 69.25 66.75 66.82 66.86 66.10 65.77 64.03 62.20 61.66 61.03 60.98 60.44 59.93 59.87 60.00 60.23 59.88 59.40 58.89 58.21 58.75 60.12 59.30 59.11 60.01 59.29
71.95 71.88 72.18 72.47 72.04 71.55 67.78 66.88 68.89 72.20 71.89 71.74 71.31 70.69 70.42 68.97 67.36 65.79 66.54 66.19 66.94 67.28 66.23 65.17 65.53 65.15 63.99 63.08 62.12 61.75 61.61 62.07 61.85 59.83 60.50 59.80 57.66 58.56 59.72 59.61 58.42 59.43 59.35
71.03 70.94 71.35 71.55 71.48 71.70 64.83 65.06 67.33 71.52 70.87 70.70 70.65 70.08 69.76 68.32 64.92 63.29 64.55 64.03 64.15 65.30 62.43 62.96 62.90 62.42 61.87 61.55 62.95 62.56 60.62 60.18 59.87 61.07 58.54 61.06 59.84 59.55 59.48 59.92 59.09 58.43 58.43
65.46 65.86 68.09 70.02 68.01 70.63 63.56 63.20 66.22 70.54 69.83 69.79 69.13 68.81 65.59 65.95 62.41 61.21 63.08 63.10 62.25 62.36 61.96 64.19 64.85 63.90 63.08 62.59 62.14 64.29 62.96 61.23 61.49 60.18 61.57 60.52 58.55 60.04 59.61 59.99 59.66 60.12 59.32
MSLP
1017.64 1017.50 1017.22 1017.13 1017.20 1017.39 1017.52 1017.65 1017.88 1018.05 1018.25 1018.45 1018.69 1018.69 1018.60 1018.73 1018.72 1018.72 1018.77 1018.73 1018.59 1018.51 1018.50 1018.46 1018.48 1018.46 1018.37 1018.27 1018.32 1018.39 1018.37 1018.47 1018.56 1018.50 1018.47 1018.36 1018.23 1017.98 1017.84 1017.90 1018.23 1018.88 1019.36
1017.96 1017.78 1017.58 1017.51 1017.55 1017.69 1017.77 1017.91 1018.11 1018.42 1018.74 1018.85 1019.11 1019.32 1019.25 1019.23 1019.28 1019.34 1019.44 1019.35 1019.18 1019.11 1019.05 1019.02 1018.99 1018.98 1018.85 1018.84 1018.87 1018.94 1018.92 1018.92 1019.12 1019.12 1019.02 1018.91 1018.80 1018.64 1018.54 1018.39 1018.60 1018.89 1019.16
1018.15 1018.04 1017.86 1017.79 1017.78 1017.86 1018.04 1018.15 1018.47 1018.72 1019.12 1019.27 1019.63 1019.82 1019.87 1019.99 1020.06 1020.05 1020.02 1020.05 1020.13 1019.71 1019.65 1019.65 1019.64 1019.57 1019.55 1019.52 1019.50 1019.45 1019.52 1019.60 1019.64 1019.65 1019.43 1019.22 1019.08 1018.99 1018.82 1018.61 1018.56 1018.74 1018.95
1018.17 1018.23 1018.20 1018.13 1018.08 1018.03 1018.18 1018.49 1018.87 1019.28 1019.57 1019.95 1020.25 1020.42 1020.37 1020.55 1020.82 1020.74 1020.67 1020.64 1020.78 1020.61 1020.36 1020.19 1020.13 1020.10 1020.18 1020.14 1020.19 1020.16 1020.09 1020.09 1020.12 1019.92 1019.73 1019.55 1019.32 1019.17 1018.98 1018.69 1018.55 1018.48 1018.55
1018.23 1018.36 1018.36 1018.33 1018.38 1018.42 1018.38 1018.70 1019.10 1019.41 1019.81 1020.30 1020.67 1020.85 1020.91 1021.05 1021.28 1021.40 1021.37 1021.46 1021.54 1021.49 1021.26 1021.03 1020.73 1020.61 1020.56 1020.66 1020.69 1020.71 1020.74 1020.65 1020.66 1020.38 1020.16 1019.93 1019.74 1019.57 1019.16 1018.84 1018.51 1018.35 1018.15
1018.26 1018.51 1018.53 1018.47 1018.53 1018.71 1018.81 1018.94 1019.31 1019.58 1020.08 1020.41 1020.89 1021.28 1021.44 1021.53 1021.80 1022.09 1021.97 1022.11 1022.22 1022.20 1021.99 1021.81 1021.62 1021.50 1021.20 1021.10 1021.16 1021.18 1021.21 1021.23 1021.07 1020.84 1020.56 1020.28 1020.25 1020.10 1019.75 1019.45 1018.97 1018.61 1018.29
1018.23 1018.62 1018.69 1018.77 1018.80 1019.02 1019.11 1019.34 1019.75 1020.00 1020.51 1020.71 1020.93 1021.61 1021.95 1022.10 1022.42 1022.70 1022.50 1022.77 1022.82 1022.92 1022.76 1022.57 1022.45 1022.35 1022.28 1021.88 1021.65 1021.58 1021.50 1021.65 1021.56 1021.35 1021.14 1020.86 1020.69 1020.54 1020.34 1020.00 1019.57 1019.10 1018.74
1018.43 1018.52 1018.71 1018.90 1018.92 1019.16 1019.32 1019.60 1019.81 1020.35 1020.59 1020.66 1021.11 1021.42 1022.06 1022.67 1023.02 1023.29 1023.21 1023.29 1023.50 1023.50 1023.46 1023.35 1023.11 1023.11 1022.93 1022.78 1022.33 1022.08 1021.96 1022.02 1021.94 1021.88 1021.73 1021.51 1021.34 1021.16 1020.97 1020.64 1020.26 1019.88 1019.39
1018.28 1018.43 1018.56 1018.80 1018.96 1019.09 1019.23 1019.56 1019.80 1020.04 1020.48 1020.67 1020.70 1020.91 1021.64 1022.20 1023.07 1023.84 1023.90 1023.92 1023.94 1023.98 1024.07 1024.05 1023.78 1023.66 1023.58 1023.45 1023.15 1022.83 1022.60 1022.36 1022.23 1022.18 1022.13 1022.11 1021.90 1021.81 1021.56 1021.30 1021.01 1020.63 1020.18
1018.06 1018.31 1018.46 1018.67 1018.89 1018.99 1019.20 1019.30 1019.53 1019.87 1020.21 1020.52 1020.77 1020.84 1020.96 1021.29 1022.39 1023.81 1024.23 1024.32 1024.27 1024.35 1024.46 1024.53 1024.37 1024.19 1024.12 1024.03 1023.70 1023.55 1023.36 1023.00 1022.84 1022.60 1022.48 1022.41 1022.45 1022.31 1022.26 1022.03 1021.77 1021.44 1020.94
1017.85 1018.09 1018.40 1018.58 1018.74 1018.88 1019.04 1019.25 1019.47 1019.76 1020.02 1020.28 1020.59 1020.76 1021.07 1021.36 1021.72 1022.57 1023.85 1024.49 1024.57 1024.63 1024.75 1024.82 1024.93 1024.69 1024.62 1024.50 1024.38 1024.05 1023.88 1023.73 1023.53 1023.30 1023.10 1023.06 1023.04 1022.89 1022.72 1022.58 1022.48 1022.25 1021.98
1017.88 1017.95 1018.15 1018.26 1018.37 1018.57 1018.84 1018.88 1019.25 1019.57 1019.81 1020.05 1020.23 1020.44 1020.58 1021.07 1021.28 1021.89 1023.17 1024.30 1024.63 1024.77 1024.91 1024.99 1025.13 1025.04 1024.88 1024.79 1024.58 1024.56 1024.43 1024.36 1024.32 1024.22 1024.16 1024.03 1023.90 1023.66 1023.43 1023.28 1023.13 1022.93 1022.75
1017.64 1017.66 1017.81 1018.06 1018.17 1018.22 1018.54 1018.58 1018.90 1019.24 1019.57 1019.84 1019.91 1020.01 1020.21 1020.46 1020.47 1021.15 1022.09 1023.54 1024.32 1024.76 1024.78 1024.89 1025.06 1025.30 1024.99 1024.98 1024.95 1024.95 1025.04 1024.99 1024.98 1024.85 1024.81 1024.72 1024.68 1024.59 1024.34 1024.18 1023.98 1023.79 1023.60
1016.97 1016.94 1017.19 1017.45 1017.62 1017.82 1018.05 1018.29 1018.68 1018.90 1019.15 1019.44 1019.63 1019.72 1019.78 1019.98 1020.15 1020.43 1021.26 1022.25 1023.86 1024.39 1024.63 1024.64 1024.81 1025.10 1025.35 1025.12 1025.18 1025.26 1025.31 1025.46 1025.49 1025.53 1025.44 1025.31 1025.18 1025.13 1025.04 1024.94 1024.85 1024.75 1024.66
1016.30 1016.56 1016.75 1017.09 1017.12 1017.34 1017.60 1017.83 1018.27 1018.58 1018.82 1019.07 1019.21 1019.39 1019.49 1019.57 1019.75 1020.04 1020.45 1020.96 1021.87 1023.42 1024.03 1024.44 1024.59 1024.70 1025.09 1025.28 1025.35 1025.65 1025.58 1025.63 1025.77 1025.94 1025.98 1025.82 1025.73 1025.56 1025.53 1025.57 1025.60 1025.51 1025.34
1015.82 1016.00 1016.29 1016.57 1016.76 1016.94 1017.09 1017.52 1017.83 1018.16 1018.54 1018.72 1018.83 1018.97 1019.09 1019.34 1019.45 1019.74 1020.16 1020.52 1021.04 1021.83 1023.07 1023.82 1024.24 1024.38 1024.74 1025.02 1025.19 1025.57 1025.79 1025.77 1025.88 1026.14 1026.25 1026.28 1026.13 1026.05 1026.05 1026.13 1026.19 1026.11 1025.99
1015.25 1015.57 1015.81 1016.12 1016.28 1016.48 1016.76 1017.15 1017.39 1017.68 1018.07 1018.31 1018.56 1018.67 1018.76 1018.91 1019.10 1019.43 1019.83 1020.21 1020.83 1021.31 1022.33 1023.60 1023.96 1024.27 1024.66 1024.90 1025.05 1025.44 1025.69 1025.96 1025.98 1026.20 1026.39 1026.50 1026.49 1026.57 1026.52 1026.55 1026.61 1026.54 1026.49
1014.44 1014.78 1015.25 1015.70 1015.94 1016.08 1016.16 1016.48 1016.82 1017.11 1017.42 1017.72 1018.05 1018.36 1018.33 1018.62 1018.82 1019.07 1019.39 1019.86 1020.30 1020.95 1021.73 1022.88 1023.71 1024.13 1024.30 1024.75 1024.95 1025.36 1025.55 1025.82 1026.07 1026.17 1026.36 1026.58 1026.59 1026.79 1026.83 1026.88 1026.91 1026.96 1026.95
1013.86 1014.14 1014.66 1015.05 1015.32 1015.46 1015.67 1015.84 1016.06 1016.29 1016.65 1016.95 1017.25 1017.63 1017.81 1018.25 1018.56 1018.78 1018.98 1019.46 1019.87 1020.57 1021.03 1021.89 1022.99 1023.70 1024.06 1024.45 1025.14 1025.42 1025.67 1025.81 1025.94 1026.21 1026.35 1026.57 1026.52 1026.72 1026.83 1026.96 1027.10 1027.19 1027.15
1013.01 1013.47 1014.04 1014.45 1014.60 1014.88 1014.97 1015.04 1015.36 1015.68 1015.93 1016.29 1016.63 1016.94 1017.26 1017.54 1017.75 1018.20 1018.57 1018.92 1019.48 1020.17 1020.78 1021.43 1022.27 1022.86 1023.39 1024.11 1024.63 1024.98 1025.42 1025.60 1025.67 1025.81 1026.01 1026.21 1026.32 1026.49 1026.52 1026.74 1026.96 1027.03 1027.08
1012.49 1013.14 1013.51 1013.19 1014.21 1014.06 1014.26 1014.40 1014.66 1014.93 1015.24 1015.53 1015.84 1016.34 1016.68 1017.00 1017.21 1017.63 1018.07 1018.57 1019.03 1019.64 1020.41 1021.02 1021.71 1022.34 1022.94 1023.51 1023.63 1024.23 1024.53 1024.93 1025.34 1025.49 1025.68 1025.81 1025.90 1026.04 1026.02 1026.22 1026.41 1026.62 1026.81
1012.01 1012.05 1012.84 1013.25 1013.10 1013.06 1013.18 1013.63 1013.96 1014.32 1014.66 1014.96 1015.16 1015.58 1016.11 1016.58 1017.00 1017.39 1017.76 1017.92 1018.29 1018.75 1019.63 1020.22 1020.81 1021.18 1021.58 1022.22 1022.97 1023.52 1023.98 1024.49 1024.77 1024.54 1025.02 1025.11 1025.35 1025.36 1025.38 1025.51 1025.61 1026.07 1026.27
1011.62 1012.15 1012.43 1012.20 1012.36 1012.36 1012.68 1012.69 1013.47 1013.64 1013.97 1014.32 1014.66 1015.05 1015.67 1016.15 1016.58 1017.20 1017.53 1017.56 1017.96 1018.11 1018.38 1018.80 1019.48 1019.88 1020.53 1020.83 1021.66 1022.75 1023.25 1023.46 1023.66 1023.99 1024.33 1024.42 1024.78 1024.62 1024.61 1024.67 1024.99 1025.32 1025.66
1009.89 1010.06 1010.91 1010.91 1011.16 1011.51 1011.29 1012.00 1012.77 1013.22 1013.30 1013.72 1014.15 1014.60 1015.10 1015.67 1016.12 1016.65 1017.08 1017.41 1017.83 1017.96 1018.07 1018.22 1018.52 1018.65 1018.88 1019.80 1020.25 1020.85 1021.87 1022.86 1023.44 1023.66 1023.76 1023.85 1024.07 1023.91 1023.79 1023.84 1024.14 1024.43 1024.75
1011.18 1010.82 1011.76 1011.20 1010.59 1010.55 1010.95 1011.19 1012.33 1012.60 1012.94 1013.29 1013.74 1014.22 1014.75 1015.44 1015.94 1016.38 1016.91 1017.18 1017.54 1017.71 1017.87 1017.87 1018.07 1018.33 1018.92 1019.35 1019.74 1020.84 1021.81 1022.37 1022.66 1022.83 1023.33 1023.20 1023.19 1023.30 1023.35 1023.00 1023.10 1023.48 1023.81
1009.17 1008.80 1010.55 1011.39 1010.67 1010.53 1011.02 1010.98 1011.47 1011.90 1012.40 1012.96 1013.48 1013.97 1014.46 1015.02 1015.62 1016.03 1016.55 1016.92 1017.28 1017.31 1017.55 1017.87 1018.14 1018.24 1018.65 1019.04 1019.64 1019.60 1020.31 1020.99 1021.39 1021.92 1022.15 1022.71 1022.56 1022.90 1022.67 1022.38 1022.36 1022.55 1022.97
Wind_Speed
4 3 3 3 4 3 4 5 5 5 7 8 7 8 10 11 10 6 6 19 17 19 18 18 18 18 18 18 19 16 16 16 17 17 16 16 17 18 12 9 14 23 21
3 3 3 3 4 3 3 3 5 5 6 7 9 8 8 10 10 10 7 9 18 19 20 20 19 18 18 17 16 15 16 17 17 18 16 16 15 15 15 13 6 9 19
3 3 2 2 3 3 5 5 5 6 6 6 8 7 7 9 9 10 8 8 9 17 18 17 16 17 17 15 17 17 18 17 17 15 14 15 15 14 11 8 6 4 6
1 2 3 3 2 3 4 4 4 5 6 5 5 5 6 8 10 10 9 7 7 7 12 18 17 16 16 17 16 17 17 15 15 16 15 15 16 16 15 14 10 2 8
2 2 2 2 3 3 3 4 3 4 5 5 6 4 5 6 8 8 9 10 10 8 6 14 17 15 16 15 15 16 15 15 16 16 14 18 20 18 18 17 15 12 3
3 2 2 2 3 3 3 3 3 4 3 5 7 6 5 5 7 7 7 8 8 8 8 9 7 8 14 16 16 15 15 14 15 16 16 18 19 19 21 19 17 15 11
3 3 2 2 2 2 3 4 3 5 3 4 4 6 5 6 8 6 6 7 8 7 8 7 6 6 7 14 15 15 15 15 15 17 17 19 20 19 21 22 22 21 19
3 3 3 3 3 3 4 3 3 2 2 1 3 2 2 2 6 6 4 6 8 6 7 7 8 8 7 6 10 15 14 15 15 15 15 17 19 21 21 21 22 23 22
5 4 4 3 3 2 3 3 4 4 3 2 3 2 2 2 3 3 5 4 6 5 5 6 7 7 7 6 8 10 14 14 14 16 15 16 16 18 20 21 22 21 22
5 4 4 4 4 3 3 3 4 3 3 3 0 1 3 4 3 3 2 3 4 4 5 4 4 6 7 5 10 13 14 14 14 13 16 17 16 17 19 19 22 21 22
5 5 5 4 4 4 3 4 4 4 2 2 3 2 2 1 3 3 3 1 2 3 3 3 3 3 5 5 5 9 13 14 14 15 15 16 17 18 18 19 20 22 21
3 5 5 4 4 4 5 4 4 5 4 3 3 3 3 3 3 3 3 2 1 1 1 1 1 2 2 3 7 11 12 13 13 14 15 16 16 17 19 20 20 20 20
3 6 6 5 4 5 5 4 4 4 4 3 4 3 3 4 3 3 4 3 3 1 1 2 2 1 0 3 3 8 10 12 12 12 13 15 15 16 17 18 19 20 21
5 5 7 6 6 5 5 5 3 4 4 4 5 5 3 4 4 3 5 7 3 2 2 2 2 3 2 2 4 8 6 10 10 11 11 13 14 14 15 15 16 17 19
5 6 6 7 7 7 7 6 4 5 4 4 4 5 4 3 4 4 5 7 6 5 6 5 3 5 4 3 4 4 4 9 9 9 9 10 11 13 14 15 15 16 16
7 6 7 7 7 7 7 7 5 4 5 4 4 4 5 3 4 4 6 6 3 4 4 3 5 4 6 5 5 5 3 7 8 8 7 8 9 11 12 13 13 14 14
8 8 8 7 8 8 7 7 7 6 6 5 5 5 6 4 4 5 5 5 5 3 4 2 2 4 7 7 6 5 3 3 4 7 6 6 6 7 9 10 11 12 12
9 9 8 8 8 8 8 9 8 7 8 7 6 6 8 4 6 6 6 7 7 4 5 6 3 3 5 7 6 6 4 3 3 5 6 5 6 5 6 7 7 8 9
9 8 8 9 9 9 9 8 9 9 9 8 7 8 7 6 6 5 8 7 6 5 4 5 5 2 2 6 4 3 4 3 4 5 6 6 6 6 5 6 6 7 7
11 8 7 9 9 9 10 9 9 8 8 7 7 8 7 8 9 8 7 8 7 7 4 6 4 5 3 4 5 4 5 4 5 5 7 7 8 8 9 8 7 7 6
9 8 7 12 10 10 8 10 9 9 8 8 7 7 8 10 10 7 6 7 9 8 6 6 4 4 6 5 11 5 6 4 5 5 5 6 6 6 7 9 9 10 8
8 8 13 14 13 10 12 15 12 9 9 8 8 7 6 9 8 10 10 12 12 11 9 6 5 6 9 6 7 7 6 5 4 6 7 6 6 8 8 7 11 11 11
9 10 13 9 11 7 10 15 16 9 9 9 8 7 6 5 7 6 9 9 10 12 11 11 10 7 8 12 11 9 8 6 5 4 6 4 5 9 8 8 14 15 14
11 15 13 11 10 9 17 18 17 10 8 9 9 9 8 8 7 7 6 6 7 8 8 7 9 9 9 11 14 12 10 6 2 3 4 4 4 5 5 8 14 18 17
7 7 8 8 10 7 8 13 12 10 8 9 7 8 8 8 9 10 6 6 5 5 3 6 7 6 7 12 13 9 8 9 6 5 8 3 4 3 3 5 8 18 17
6 9 16 7 6 6 9 12 13 7 8 5 5 6 10 9 13 14 9 8 7 6 7 6 6 5 7 11 17 12 9 9 5 4 8 8 5 4 3 3 3 6 9
Wind_Direction
25 19 33 52 54 68 82 96 95 87 86 79 62 66 75 69 61 57 58 64 65 66 66 71 74 74 72 65 62 65 68 66 62 60 57 53 47 47 65 163 178 196 199
6 17 29 63 63 64 85 96 108 99 87 90 77 58 65 72 70 63 53 45 58 61 66 66 66 66 63 66 64 61 60 58 57 50 46 47 46 43 40 52 107 184 203
30 358 45 74 96 94 90 91 91 96 92 87 86 67 60 60 64 65 60 55 37 61 66 65 64 63 67 63 62 63 65 54 48 47 48 44 41 40 38 55 64 88 185
99 23 61 62 66 93 110 103 112 96 103 93 90 80 78 70 62 61 62 61 46 41 47 67 65 66 62 61 60 58 58 58 54 56 52 54 42 39 45 53 57 103 186
159 121 78 66 73 69 95 114 94 117 118 106 107 88 78 69 67 66 60 61 52 45 45 45 47 61 67 68 59 63 60 57 57 58 44 49 52 46 47 41 42 44 105
164 124 110 85 93 99 98 94 92 77 108 116 94 73 65 70 74 64 63 62 56 44 46 48 40 34 60 65 66 66 67 67 58 52 43 54 53 49 47 41 46 49 47
175 150 162 124 103 117 118 118 94 96 90 119 103 84 60 70 77 65 59 64 59 44 41 48 46 43 39 47 65 64 68 65 55 55 43 48 53 51 49 42 44 47 48
165 182 172 154 170 131 118 132 131 116 99 167 120 119 131 96 59 64 40 65 58 50 36 40 53 47 45 33 53 59 65 68 65 61 55 47 59 54 54 47 45 43 42
180 198 192 148 133 130 144 160 152 141 148 233 173 131 131 153 115 54 34 52 60 55 45 25 49 50 45 37 39 48 60 69 64 66 61 62 52 59 57 55 50 47 44
204 190 210 177 159 159 151 165 157 150 136 176 222 247 41 137 141 139 63 38 65 57 49 30 33 55 53 40 50 63 57 54 63 64 67 61 63 55 59 55 55 49 48
209 191 194 200 192 176 184 168 158 164 183 166 184 155 113 91 116 133 140 163 62 47 67 52 15 49 58 56 43 67 67 60 58 58 62 61 56 57 63 61 58 58 52
211 209 204 206 200 197 193 192 188 179 188 213 190 196 164 178 165 147 117 121 147 85 47 79 34 20 61 37 84 80 79 72 67 66 63 59 55 54 56 59 61 64 64
201 215 200 201 201 202 211 201 188 188 187 193 208 211 202 213 160 113 116 133 145 168 176 222 182 278 71 77 92 87 85 83 75 71 72 72 66 63 61 61 61 62 65
203 194 205 204 202 203 206 206 203 203 188 210 220 230 207 212 187 156 143 146 130 137 181 207 199 196 246 141 141 105 99 88 80 71 69 73 76 73 73 71 69 67 66
210 198 202 203 203 201 200 199 206 206 195 203 221 230 236 220 196 165 155 159 146 159 201 195 182 200 201 197 132 127 121 111 97 87 75 75 77 82 79 74 71 71 71
205 192 199 203 202 205 198 198 203 207 204 210 227 230 239 194 207 168 169 170 141 135 150 165 203 176 193 193 168 150 170 130 122 105 90 81 80 80 80 77 74 74 74
203 203 198 203 201 199 200 200 207 202 206 212 217 228 239 194 198 174 164 160 158 127 120 147 161 179 183 195 174 161 172 155 142 132 121 105 91 83 82 82 78 78 80
205 201 194 198 205 203 197 200 207 206 206 208 206 223 235 211 192 185 171 182 172 157 132 151 145 156 187 200 183 174 176 185 177 178 156 151 129 115 101 97 96 89 82
211 202 193 199 203 204 199 204 205 206 210 213 202 205 223 209 193 187 186 183 170 166 146 145 143 152 152 176 172 175 181 195 207 206 193 194 188 174 171 152 134 126 124
208 196 206 213 206 205 204 201 198 204 206 210 210 194 193 210 197 192 192 193 169 163 151 142 141 153 168 158 184 187 190 201 209 206 212 204 209 205 200 194 193 176 163
200 135 124 268 228 207 207 202 200 203 205 209 206 197 194 216 197 196 178 182 172 167 157 159 150 150 173 165 197 179 201 183 213 208 204 214 215 216 220 210 217 214 195
158 202 215 213 216 213 202 199 193 200 204 207 212 199 190 192 208 208 202 178 183 170 174 165 168 191 189 185 167 185 178 179 213 186 193 220 207 223 227 221 216 213 211
136 251 243 220 224 211 182 221 207 200 200 208 205 190 179 181 180 200 193 172 189 189 181 182 183 192 172 187 169 176 194 182 194 152 181 224 192 232 225 228 214 214 213
200 211 222 213 207 205 189 202 208 207 199 206 198 187 181 174 177 176 182 175 196 200 196 190 201 203 195 171 179 183 187 164 113 147 176 218 167 229 218 229 213 214 213
37 347 297 231 204 224 189 189 191 193 201 202 189 181 175 169 174 164 169 177 200 213 214 213 198 172 164 176 166 143 166 176 203 204 194 225 180 226 218 231 221 214 214
163 108 260 245 239 235 201 190 177 180 182 173 164 176 175 167 168 180 182 177 191 209 194 203 205 187 180 171 173 188 167 183 179 195 191 199 170 187 235 203 224 208 213